Tucumcari, NM

10:58 PM MDT on September 26, 2016 (GMT -0600)
Tucumcari Municipal

Weather History for KTCC - January, 2013

Change the Weather History Date:

Sunday, January 20, 2013

  Actual Average Record
Temperature  
Mean Temperature 46 °F -  
Max Temperature 63 °F 54 °F 78 °F (1986)
Min Temperature 28 °F 24 °F -7 °F (1943)
Degree Days  
Heating Degree Days 20    
Moisture  
Dew Point 13 °F    
Average Humidity 33    
Maximum Humidity 58    
Minimum Humidity 11    
Precipitation  
Precipitation 0.00 in - - ()
Sea Level Pressure  
Sea Level Pressure 30.15 in    
Wind  
Wind Speed 10 mph (NNW)    
Max Wind Speed 22 mph    
Max Gust Speed 30 mph    
Visibility 10 miles    
Events      
Averages and records for this station are not official NWS values.
T = Trace of Precipitation, MM = Missing Value Source: NWS Daily Summary

Daily Weather History Graph

Daily Weather History Graph

Search for Another Location

Airport or City:

Trip Planner

Search our weather history database for the weather conditions in past years. The results will help you decide how hot, cold, wet, or windy it might be!

Date:

Astronomy

Jan. 20, 2013 Rise Set
Actual Time 7:00 AM MST 5:10 PM MST
Civil Twilight 6:33 AM MST 5:38 PM MST
Nautical Twilight 6:02 AM MST 6:09 PM MST
Astronomical Twilight 5:32 AM MST 6:39 PM MST
Moon 12:12 PM MST (1/20) 1:36 AM MST (1/20)
Length of Visible Light 11h 05m
Length of Day
10h 10m
Waxing Gibbous, 67% of the Moon is Illuminated
Jan 20
Waxing Gibbous
Jan 26
Full
Feb 3
Last Quarter
Feb 10
New
Feb 17
First Quarter

Hourly Weather History & Observations

Time (MST) Temp. Windchill Dew Point Humidity Pressure Visibility Wind Dir Wind Speed Gust Speed Precip Events Conditions
12:53 AM 36.0 °F 29.6 °F 15.1 °F 43% 30.20 in 10.0 mi West 8.1 mph - N/A   Clear
1:53 AM 28.0 °F 21.7 °F 15.1 °F 58% 30.22 in 10.0 mi West 5.8 mph - N/A   Clear
2:53 AM 32.0 °F 24.8 °F 15.1 °F 50% 30.20 in 10.0 mi West 8.1 mph - N/A   Clear
3:53 AM 34.0 °F 26.6 °F 14.0 °F 44% 30.17 in 10.0 mi West 9.2 mph - N/A   Clear
4:53 AM 30.0 °F 21.7 °F 14.0 °F 51% 30.17 in 10.0 mi West 9.2 mph - N/A   Clear
5:53 AM 28.9 °F 25.2 °F 14.0 °F 54% 30.18 in 10.0 mi WSW 3.5 mph - N/A   Clear
6:53 AM 34.0 °F 27.2 °F 12.0 °F 40% 30.16 in 10.0 mi WSW 8.1 mph - N/A   Clear
7:53 AM 37.0 °F 29.3 °F 14.0 °F 39% 30.14 in 10.0 mi SW 11.5 mph - N/A   Clear
8:53 AM 46.9 °F - 14.0 °F 27% 30.13 in 10.0 mi SSW 16.1 mph - N/A   Clear
9:53 AM 55.0 °F - 12.9 °F 19% 30.12 in 10.0 mi WSW 11.5 mph - N/A   Clear
10:53 AM 55.0 °F - 12.9 °F 19% 30.09 in 10.0 mi West 11.5 mph - N/A   Clear
11:53 AM 57.0 °F - 14.0 °F 18% 30.07 in 10.0 mi NNW 11.5 mph - N/A   Clear
12:53 PM 59.0 °F - 12.0 °F 16% 30.04 in 10.0 mi NW 8.1 mph - N/A   Clear
1:53 PM 62.1 °F - 10.0 °F 13% 30.05 in 10.0 mi NNE 4.6 mph - N/A   Clear
2:53 PM 63.0 °F - 6.1 °F 11% 30.04 in 10.0 mi NE 21.9 mph 29.9 mph N/A   Clear
3:53 PM 60.1 °F - 7.0 °F 12% 30.07 in 10.0 mi ENE 19.6 mph 27.6 mph N/A   Clear
4:53 PM 55.0 °F - 8.1 °F 15% 30.11 in 10.0 mi NE 18.4 mph - N/A   Clear
5:53 PM 46.0 °F 41.0 °F 10.9 °F 24% 30.18 in 10.0 mi NNE 10.4 mph - N/A   Clear
6:53 PM 45.0 °F 38.9 °F 12.9 °F 27% 30.19 in 10.0 mi NNE 12.7 mph - N/A   Clear
7:53 PM 39.0 °F 33.4 °F 12.9 °F 34% 30.22 in 10.0 mi NE 8.1 mph - N/A   Clear
8:53 PM 37.0 °F 31.6 °F 12.9 °F 37% 30.21 in 10.0 mi NNE 6.9 mph - N/A   Clear
9:53 PM 34.0 °F 27.2 °F 14.0 °F 44% 30.23 in 10.0 mi NNE 8.1 mph - N/A   Clear
10:53 PM 33.1 °F 24.9 °F 16.0 °F 50% 30.25 in 10.0 mi NNE 10.4 mph - N/A   Clear
11:53 PM 32.0 °F 24.2 °F 18.0 °F 56% 30.25 in 10.0 mi NNE 9.2 mph - N/A   Clear